sat.trackr.live / text

‹ back to catalog

STARLINK-30479

NORAD 57898 · 2023-146H

PAYLOAD ACTIVE UNKNOWN

§ Identity

Operator
Country
US
Launch date
2023-09-20
Launch site
AFETR
Launch vehicle
Mass (kg)
RCS (m²)

Purposes: comms

External: N2YO · Heavens-Above · Gunter

§ Orbital elements

Epoch: 2026-05-24T23:35:12.301728Z

Period
94.27 min
Inclination
43.0031°
Eccentricity
0.0001235
Mean motion
15.27583841 rev/d
Perigee alt
482.2 km
Apogee alt
483.9 km
Semi-major
6,861.2 km
B*
5.5969e-6
RAAN
243.3965°
Arg perigee
267.6556°
Mean anomaly
92.4154°
Rev number
14,872

§ Raw data

STARLINK-304791 57898U 23146H   26144.98278127 -.00000108  00000+0  55969-5 0  99922 57898  43.0031 243.3965 0001235 267.6556  92.4154 15.27583841148721

JSON: /api/v1/satellites/57898 · /tle

For live sub-satellite position, see the globe view (requires WebGL).

§ Visibility from observer

Set your observer location to see the next 7 days of passes ≥ 10°. The values pass through the URL so the page stays shareable.

No JS? Fill the form by hand. The geolocation button needs JavaScript.